Regional Weather Roundup
Issued by NWS Bismarck, ND

Home | Current Version | Previous Version | Text Only | Print | Product List | Glossary On
Versions: 1 2 3 4 5 6 7 8 9 10 11 12 13 14 15 16 17 18 19 20 21 22 23 24 25 26 27 28 29 30 31 32 33 34 35 36 37 38 39 40 41 42 43 44 45 46 47 48 49 50
000
ASUS43 KBIS 310502
RWRBIS

NWR BROADCAST TEXT
NATIONAL WEATHER SERVICE BISMARCK ND
1200 AM CDT FRI JUL 31 2015

NOTE: "FAIR" INDICATES FEW OR NO CLOUDS BELOW 12,000 FEET WITH NO
SIGNIFICANT WEATHER AND/OR OBSTRUCTIONS TO VISIBILITY.


CITY           SKY/WX    TMP DP  RH WIND       PRES   REMARKS
WILLISTON      CLEAR     59  51  75 N3        30.16S
MINOT          CLEAR     61  48  62 SW7       30.12S
MINOT AFB      CLEAR     55  53  91 W9        30.11S
BISMARCK       CLEAR     60  52  74 CALM      30.15S
DICKINSON      CLEAR     60  48  64 S5        30.19R
GARRISON         N/A     58  52  80 NW8       30.15S
HETTINGER ARPT CLEAR     53  47  79 W3        30.21R
JAMESTOWN      CLEAR     62  53  72 NW9       30.10S
HAZEN          FAIR      52  48  87 S5        30.17R
OAKES            N/A     61  57  88 NW6       30.10S
STANLEY        FAIR      55  55 100 SW5       30.17F
$$

CITY           SKY/WX    TMP DP  RH WIND       PRES   REMARKS
GRAND FORKS    CLEAR     58  52  80 W8        30.02S
GRAND FORKS AF CLEAR     60  52  73 W6        30.03S
DEVILS LAKE    CLEAR     63  50  63 W9        30.07S
FARGO          CLEAR     63  55  75 W6        30.05S
CAVALIER       FAIR      63  52  67 W9        30.00F
GRAFTON        FAIR      64  54  68 W10       30.02R
GWINNER        FAIR      70  54  56 W8        30.10S
LANGDON        FAIR      54  52  94 W7        30.06S
$$

CITY           SKY/WX    TMP DP  RH WIND       PRES   REMARKS
ABERDEEN       CLEAR     60  53  77 SW6       30.12S
MOBRIDGE       CLEAR     65  54  67 W3        30.13S
BUFFALO          N/A     68  47  46 NE7       30.16S
RAPID CITY     CLEAR     63  51  65 CALM      30.21R
GLASGOW        CLEAR     66  49  54 NE10      30.14S
SIDNEY         CLEAR    N/A N/A N/A CALM      30.15S
WOLF POINT     CLEAR     62  48  60 NE3       30.15R
GLENDIVE       CLEAR     64  48  55 NW6       30.19S
MILES CITY     CLEAR     72  46  39 NE9       30.19R
BAKER          CLEAR     64  44  48 CALM      30.23R
$$

CITY           SKY/WX    TMP DP  RH WIND       PRES   REMARKS
BILLINGS       CLEAR     73  41  31 N8        30.24R
GREAT FALLS    FAIR      71  40  32 E12       30.17S
$$




USA.gov is the U.S. government's official web portal to all federal, state and local government web resources and services.